Simultaneous Nadir Overpasses (SNOs) Predictions

Prediction of SNOs between NOAA-19 and NPP Satellite Orbit:

Table of predicted SNOs for the next 14.0 days since TLE Epoch: 8/1/2016
Index Date (NOAA-19) Time (NOAA-19) Lat,Lon (NOAA-19) SZA (NOAA-19 ) Date (NPP) Time (NPP) Lat,Lon (NPP) SZA (NPP ) Distance(km) Time Diff (sec)
1 08/12/2016 19:49:19 -80.98, 10.04 109.86 08/12/2016 19:50:21 -80.98, 9.94 109.88 1.82 62
2 08/12/2016 20:40:17 80.98, 177.25 70.16 08/12/2016 20:41:06 80.98, 177.12 70.15 2.26 49
3 08/12/2016 21:31:21 -80.98, -15.47 109.84 08/12/2016 21:31:51 -80.98, -15.48 109.85 0.52 30
4 08/12/2016 22:22:19 80.98, 151.74 70.18 08/12/2016 22:22:36 80.98, 151.70 70.18 0.75 17
5 08/12/2016 23:13:23 -80.98, -40.98 109.82 08/12/2016 23:13:21 -80.98, -40.91 109.83 1.24 2
6 08/13/2016 00:04:21 80.98, 126.23 70.21 08/13/2016 00:04:06 80.99, 126.27 70.21 0.98 15
7 08/13/2016 00:55:25 -80.98, -66.48 109.80 08/13/2016 00:54:51 -80.98, -66.33 109.80 2.67 34
8 08/13/2016 01:46:23 80.98, 100.71 70.23 08/13/2016 01:45:36 80.99, 100.85 70.24 2.50 47




NCC Satellite Simultaneous Nadir Overpasses (SNOs) Prediction Service
